Home > Weather > Schwyz > Past weeks

Flag for Switzerland Past Weather in Schwyz, Schwyz, Switzerland — Yesterday and Last 2 Weeks

Now
73 °F

Overcast.


Feels Like: 75 °F
Forecast: 63 / 82 °F
Wind: 2 mph from North

Location: Altdorf

Current Time: Jul 30, 2016 at 8:49:38 PM

Latest Report: Jul 30, 2016 at 8:00 PM


Visibility: 13 mi

Pressure: 29.91 "Hg (28.18 "Hg at 515m altitude)

Humidity: 75%

Dew Point: 65 °F

Location of SchwyzLocation

Past Weather in Schwyz — Graph

°F

Schwyz Temperature Yesterday

Maximum temperature yesterday: 79 °F (at 4:00 PM)
Minimum temperature yesterday: 62 °F (at 4:00 AM)
Average temperature yesterday: 70 °F

High & Low Weather Summary for the Past Weeks

 TemperatureHumidityPressure
High88 °F (Jul 20, 6:00 PM)96% (Jul 23, 5:00 AM)30.38 "Hg (Jul 23, 5:00 AM)
Low45 °F (Jul 16, 5:00 AM)35% (Jul 20, 6:00 PM)29.88 "Hg (Jul 30, 2:00 PM)
Average68 °F76%30.08 "Hg
* Reported Jul 15 7:00 PM — Jul 30 7:00 PM, Schwyz, Weather by CustomWeather, © 2016

Note: Actual official high and low records may vary slightly from our data, if they occured in-between our weather recording intervals... More about our weather records

Advertising

Schwyz Weather History for the Previous 24 Hours

Scroll right to see more
 ConditionsComfort  
Time TempWeatherWind HumidityBarometerVisibility
7:00 PM
Sat, Jul 30
73 °FMild.7 mph79%29.90 "HgN/A
6:00 PM73 °FMild.2 mph76%29.93 "HgN/A
5:00 PM74 °FLight rain. Overcast.9 mph75%29.92 "Hg9 mi
4:00 PM78 °FWarm.7 mph60%29.89 "HgN/A
3:00 PM82 °FWarm.13 mph52%29.88 "HgN/A
2:00 PM82 °FPassing clouds.10 mph49%29.88 "Hg19 mi
1:00 PM79 °FWarm.8 mph54%29.90 "HgN/A
12:00 PM76 °FMild.6 mph64%29.91 "HgN/A
11:00 AM74 °FPassing clouds.5 mph64%29.93 "Hg19 mi
10:00 AM71 °FMild.5 mph75%29.95 "HgN/A
9:00 AM69 °FMild.1 mph70%29.97 "HgN/A
8:00 AM60 °FPassing clouds.2 mph95%30.01 "Hg19 mi
7:00 AM61 °FCool.3 mph91%30.01 "HgN/A
6:00 AM62 °FCool.1 mph90%30.01 "HgN/A
5:00 AM61 °FClear.1 mph93%30.01 "Hg22 mi
4:00 AM63 °FMild.3 mph88%30.01 "HgN/A
3:00 AM64 °FMild.2 mph86%30.01 "HgN/A
2:00 AM64 °FClear.1 mph87%30.00 "Hg16 mi
1:00 AM64 °FMild.1 mph90%30.01 "HgN/A
12:00 AM66 °FMild.1 mph85%30.00 "HgN/A
11:00 PM
Fri, Jul 29
69 °FPassing clouds.1 mph77%29.98 "Hg16 mi
10:00 PM71 °FMild.3 mph75%29.96 "HgN/A
9:00 PM72 °FMild.2 mph76%29.94 "HgN/A
8:00 PM75 °FScattered clouds.3 mph63%29.92 "Hg16 mi
Weather by CustomWeather, © 2016

See weather overviewHow to use our weather pages